User: anonymous
Location: PFO Observatory
(45.2937°N, 66.0991°W)
Time: 14:53:27
(UTC-03:00)
Language:

Cosmos 1151 Rocket - Orbit

View from above orbital plane
View from above orbital plane
View from above satellite
View from above satellite

Ground track
Ground track

The orbit data is extracted from the following two-line orbital elements,

1 11672U 80005B   14272.65673537  .00000756  00000-0  81080-4 0  1405
2 11672 082.5137 294.9428 0016813 013.4339 125.9875 14.87248686875983
Epoch (UTC): 29 September 2014 15:45:41
Eccentricity: 0.0016813
inclination: 82.5137°
perigee height: 595 km
apogee height: 618 km
right ascension of ascending node: 294.9428°
argument of perigee: 13.4339°
revolutions per day: 14.87248686
mean anomaly at epoch: 125.9875°
orbit number at epoch: 87598

The dashed part of the orbit path shows where the satellite is in the earth's shadow,  

DLR